When you browse on this site, cookies collect data to enhance your experience and personalize the content and advertising you see.
Visit our Privacy Policy to learn more. By continuing to use the site, you agree to this use of cookies and data.
  • In France
  • List of Countries
  • For 7 days
  • Water Temperature
  • Satellite Maps
  • Weather Map
  • Weather Widgets
  • user-avatar
    Login

    Hourly Weather Tirana

    Today, 17 June, Monday

    Time Temperature Precipitation Wind Pressure Humidity
    00:00 +24°C° 0 mm 1 mps 751 mmHg 80%
    01:00 +24°C° 0 mm 2 mps 751 mmHg 81%
    02:00 +23°C° 0 mm 1 mps 751 mmHg 82%
    03:00 +23°C° 0 mm 1 mps 751 mmHg 83%
    04:00 +20°C° 0 mm 0 mps 751 mmHg 85%
    05:00 +22°C° 0 mm 0 mps 751 mmHg 79%
    06:00 +24°C° 0 mm 0 mps 751 mmHg 74%
    07:00 +27°C° 0 mm 1 mps 751 mmHg 66%
    08:00 +29°C° 0 mm 1 mps 751 mmHg 62%
    09:00 +30°C° 0 mm 2 mps 751 mmHg 57%
    10:00 +31°C° 0 mm 2 mps 751 mmHg 53%
    11:00 +33°C° 0 mm 3 mps 751 mmHg 52%
    12:00 +33°C° 0 mm 3 mps 751 mmHg 51%
    13:00 +33°C° 0 mm 3 mps 751 mmHg 50%
    14:00 +33°C° 0.1 mm 3 mps 751 mmHg 53%
    15:00 +31°C° 0.1 mm 3 mps 751 mmHg 55%
    16:00 +30°C° 0.1 mm 3 mps 751 mmHg 58%
    17:00 +29°C° 0.4 mm 2 mps 751 mmHg 64%
    18:00 +27°C° 0.4 mm 1 mps 751 mmHg 71%
    19:00 +26°C° 0.4 mm 1 mps 751 mmHg 77%
    20:00 +25°C° 0.2 mm 1 mps 752 mmHg 78%
    21:00 +24°C° 0.2 mm 1 mps 752 mmHg 80%
    22:00 +23°C° 0.2 mm 1 mps 752 mmHg 81%
    23:00 +23°C° 0.4 mm 1 mps 752 mmHg 80%

    Tomorrow, 18 June, Tuesday

    Time Temperature Precipitation Wind Pressure Humidity
    00:00 +23°C° 0.4 mm 1 mps 752 mmHg 80%
    01:00 +22°C° 0.4 mm 1 mps 752 mmHg 80%
    02:00 +22°C° 0.2 mm 1 mps 752 mmHg 79%
    03:00 +22°C° 0.2 mm 1 mps 752 mmHg 79%
    04:00 +22°C° 0.2 mm 1 mps 752 mmHg 78%
    05:00 +23°C° 0.1 mm 1 mps 752 mmHg 73%
    06:00 +25°C° 0.1 mm 1 mps 752 mmHg 69%
    07:00 +26°C° 0.1 mm 1 mps 753 mmHg 64%
    08:00 +27°C° 0 mm 1 mps 752 mmHg 60%
    09:00 +29°C° 0 mm 1 mps 752 mmHg 56%
    10:00 +30°C° 0 mm 1 mps 752 mmHg 52%
    11:00 +30°C° 0 mm 2 mps 752 mmHg 53%
    12:00 +31°C° 0 mm 3 mps 752 mmHg 53%
    13:00 +32°C° 0 mm 4 mps 752 mmHg 53%
    14:00 +32°C° 0 mm 4 mps 752 mmHg 55%
    15:00 +30°C° 0 mm 4 mps 751 mmHg 57%
    16:00 +29°C° 0 mm 3 mps 751 mmHg 59%
    17:00 +28°C° 0 mm 3 mps 751 mmHg 65%
    18:00 +27°C° 0 mm 2 mps 751 mmHg 72%
    19:00 +25°C° 0 mm 1 mps 752 mmHg 79%
    20:00 +24°C° 0 mm 2 mps 752 mmHg 81%
    21:00 +24°C° 0 mm 2 mps 752 mmHg 84%
    22:00 +23°C° 0 mm 2 mps 752 mmHg 87%
    23:00 +23°C° 0 mm 1 mps 752 mmHg 87%

    Day after tomorrow, 19 June, Wednesday

    Time Temperature Precipitation Wind Pressure Humidity
    00:00 +22°C° 0 mm 1 mps 752 mmHg 87%
    01:00 +22°C° 0 mm 1 mps 752 mmHg 87%
    02:00 +22°C° 0 mm 1 mps 752 mmHg 87%
    03:00 +22°C° 0 mm 1 mps 751 mmHg 87%
    04:00 +21°C° 0 mm 1 mps 751 mmHg 87%
    05:00 +21°C° 0 mm 0 mps 751 mmHg 82%
    06:00 +22°C° 0 mm 0 mps 751 mmHg 76%
    07:00 +24°C° 0 mm 0 mps 752 mmHg 70%
    08:00 +27°C° 0 mm 1 mps 752 mmHg 65%
    09:00 +29°C° 0 mm 2 mps 751 mmHg 59%
    10:00 +30°C° 0 mm 2 mps 751 mmHg 54%
    11:00 +30°C° 0.1 mm 3 mps 751 mmHg 55%
    12:00 +30°C° 0.1 mm 4 mps 751 mmHg 56%
    13:00 +30°C° 0.1 mm 4 mps 751 mmHg 56%
    14:00 +30°C° 0 mm 4 mps 751 mmHg 57%
    15:00 +30°C° 0 mm 4 mps 751 mmHg 57%
    16:00 +29°C° 0 mm 4 mps 750 mmHg 58%
    17:00 +28°C° 0 mm 3 mps 750 mmHg 64%
    18:00 +26°C° 0 mm 2 mps 750 mmHg 71%
    19:00 +25°C° 0 mm 2 mps 751 mmHg 78%
    20:00 +24°C° 0 mm 1 mps 751 mmHg 81%
    21:00 +23°C° 0 mm 1 mps 751 mmHg 84%
    22:00 +22°C° 0 mm 1 mps 751 mmHg 87%
    23:00 +22°C° 0 mm 1 mps 751 mmHg 87%

    20 June, Thursday

    Time Temperature Precipitation Wind Pressure Humidity
    00:00 +22°C° 0 mm 1 mps 751 mmHg 88%
    01:00 +21°C° 0 mm 1 mps 751 mmHg 88%
    02:00 +21°C° 0 mm 1 mps 751 mmHg 88%
    03:00 +21°C° 0 mm 1 mps 751 mmHg 88%
    04:00 +21°C° 0 mm 1 mps 751 mmHg 88%
    05:00 +23°C° 0 mm 1 mps 751 mmHg 82%
    06:00 +22°C° 0 mm 0 mps 751 mmHg 77%
    07:00 +23°C° 0 mm 0 mps 751 mmHg 71%
    08:00 +27°C° 0 mm 1 mps 751 mmHg 65%
    09:00 +28°C° 0 mm 1 mps 751 mmHg 59%
    10:00 +29°C° 0 mm 2 mps 751 mmHg 53%
    11:00 +30°C° 0 mm 3 mps 751 mmHg 54%
    12:00 +30°C° 0 mm 3 mps 751 mmHg 55%
    13:00 +30°C° 0 mm 4 mps 751 mmHg 56%
    14:00 +30°C° 0 mm 4 mps 751 mmHg 56%
    15:00 +29°C° 0 mm 3 mps 750 mmHg 56%
    16:00 +29°C° 0 mm 3 mps 750 mmHg 56%
    17:00 +27°C° 0 mm 3 mps 751 mmHg 64%
    18:00 +26°C° 0 mm 2 mps 751 mmHg 71%
    19:00 +24°C° 0 mm 1 mps 751 mmHg 78%
    20:00 +24°C° 0 mm 1 mps 751 mmHg 79%
    21:00 +23°C° 0 mm 1 mps 751 mmHg 80%
    22:00 +21°C° 0 mm 0 mps 752 mmHg 82%
    23:00 +22°C° 0 mm 1 mps 752 mmHg 82%

    21 June, Friday

    Time Temperature Precipitation Wind Pressure Humidity
    00:00 +22°C° 0 mm 1 mps 752 mmHg 83%
    01:00 +22°C° 0 mm 1 mps 752 mmHg 84%
    02:00 +22°C° 0 mm 1 mps 752 mmHg 85%
    03:00 +21°C° 0 mm 1 mps 752 mmHg 86%
    04:00 +21°C° 0 mm 1 mps 752 mmHg 87%
    05:00 +23°C° 0 mm 1 mps 752 mmHg 80%
    06:00 +24°C° 0 mm 1 mps 752 mmHg 73%
    07:00 +26°C° 0 mm 1 mps 752 mmHg 66%
    08:00 +27°C° 0 mm 2 mps 752 mmHg 61%
    09:00 +29°C° 0 mm 2 mps 752 mmHg 56%
    10:00 +30°C° 0 mm 2 mps 752 mmHg 51%
    11:00 +31°C° 0 mm 3 mps 752 mmHg 51%
    12:00 +31°C° 0 mm 3 mps 752 mmHg 51%
    13:00 +33°C° 0 mm 4 mps 752 mmHg 52%
    14:00 +32°C° 0 mm 4 mps 752 mmHg 53%
    15:00 +32°C° 0 mm 4 mps 751 mmHg 55%
    16:00 +30°C° 0 mm 4 mps 751 mmHg 57%
    17:00 +29°C° 0 mm 3 mps 751 mmHg 64%
    18:00 +27°C° 0 mm 2 mps 752 mmHg 70%
    19:00 +25°C° 0 mm 1 mps 752 mmHg 77%
    20:00 +25°C° 0 mm 1 mps 752 mmHg 79%
    21:00 +24°C° 0 mm 1 mps 752 mmHg 81%
    22:00 +22°C° 0 mm 0 mps 753 mmHg 83%
    23:00 +23°C° 0 mm 1 mps 753 mmHg 83%

    22 June, Saturday

    Time Temperature Precipitation Wind Pressure Humidity
    00:00 +23°C° 0 mm 1 mps 753 mmHg 83%
    01:00 +23°C° 0 mm 1 mps 752 mmHg 84%
    02:00 +23°C° 0 mm 1 mps 752 mmHg 83%
    03:00 +23°C° 0 mm 1 mps 752 mmHg 82%
    04:00 +21°C° 0 mm 0 mps 752 mmHg 82%
    05:00 +24°C° 0 mm 1 mps 753 mmHg 77%
    06:00 +26°C° 0 mm 1 mps 753 mmHg 71%
    07:00 +27°C° 0 mm 1 mps 753 mmHg 66%
    08:00 +29°C° 0 mm 1 mps 753 mmHg 61%
    09:00 +31°C° 0 mm 1 mps 753 mmHg 55%
    10:00 +32°C° 0 mm 2 mps 753 mmHg 50%
    11:00 +34°C° 0 mm 2 mps 753 mmHg 48%
    12:00 +35°C° 0 mm 2 mps 753 mmHg 45%
    13:00 +35°C° 0 mm 2 mps 753 mmHg 43%
    14:00 +35°C° 0 mm 2 mps 753 mmHg 42%
    15:00 +34°C° 0 mm 1 mps 752 mmHg 42%
    16:00 +34°C° 0 mm 1 mps 752 mmHg 41%
    17:00 +32°C° 0 mm 1 mps 752 mmHg 51%
    18:00 +30°C° 0 mm 1 mps 752 mmHg 61%
    19:00 +27°C° 0 mm 2 mps 753 mmHg 71%
    20:00 +27°C° 0 mm 2 mps 753 mmHg 71%
    21:00 +26°C° 0 mm 2 mps 753 mmHg 71%
    22:00 +26°C° 0 mm 2 mps 753 mmHg 71%
    23:00 +26°C° 0 mm 2 mps 753 mmHg 72%
    Show more